Regional Weather Roundup
Issued by NWS

Home | Current Version | Previous Version | Graphics & Text | Print | Product List | Glossary On
Versions: 1 2 3 4 5 6 7 8 9 10 11 12 13 14 15 16 17 18 19 20 21 22 23 24 25 26 27 28 29 30 31 32 33 34 35 36 37 38 39 40 41 42 43 44 45 46 47 48 49 50
000
ASUS43 KFSD 111202
RWRSD

WEATHER ROUNDUP FOR SOUTH DAKOTA
NATIONAL WEATHER SERVICE SIOUX FALLS SD
600 AM CST MON DEC 11 2017

NOTE: "FAIR" INDICATES FEW OR NO CLOUDS BELOW 12,000 FEET WITH NO
SIGNIFICANT WEATHER AND/OR OBSTRUCTIONS TO VISIBILITY.


SDZ001>005-009-010-012>017-111300-
NORTHWEST AND NORTH CENTRAL SOUTH DAKOTA

CITY           SKY/WX    TMP DP  RH WIND       PRES   REMARKS
BUFFALO          N/A     39  24  55 NW36G43   30.09R
FAITH            N/A     39  26  59 NW31G44   30.08R
MOBRIDGE       CLOUDY    41  32  70 NW23G36   29.94R
$$

SDZ012>016-024>037-041>051-057-063-072>074-111300-
SOUTHWEST AND SOUTH CENTRAL SOUTH DAKOTA

CITY           SKY/WX    TMP DP  RH WIND       PRES   REMARKS
RAPID CTY ARPT CLOUDY    47  11  23 NW36G47   30.15F
PIERRE         CLOUDY    44  28  53 NW31G41   30.02R
CUSTER         CLOUDY    39  11  31 NW21G35   30.16R
ELLSWORTH AFB  CLOUDY    47  13  25 NW32G45   30.13F
PHILIP         CLOUDY    44  21  40 NW21G28   30.11R
PINE RIDGE     CLOUDY    34  20  56 W5        30.20R WCI  30
SPEARFISH      FAIR      41  16  36 W21G32    30.22S
WINNER         FAIR      45  22  40 NW28G37   30.04R
$$

SDZ004>011-016>023-039-040-111300-
NORTHEAST SOUTH DAKOTA

CITY           SKY/WX    TMP DP  RH WIND       PRES   REMARKS
ABERDEEN       CLOUDY    42  33  70 NW29G35   29.86R
WATERTOWN      CLOUDY    35  32  88 NW16      29.78R WCI  25
BROOKINGS      CLOUDY    37  28  70 NW20G25   29.80R
SISSETON         N/A     39  35  86 NW29G39   29.76R
$$

SDZ017-020-022-023-036>040-048>070-111300-
SOUTHEAST SOUTH DAKOTA

CITY           SKY/WX    TMP DP  RH WIND       PRES   REMARKS
SIOUX FALLS    CLOUDY    39  27  62 NW21G35   29.83R
HURON          CLOUDY    41  29  62 NW25G35   29.89R
CHAMBERLAIN    MOCLDY    44  29  56 NW29G44   30.00R
MITCHELL       CLOUDY    42  28  57 NW26G35   29.92R
YANKTON        CLEAR     40  23  50 W20       29.92R
$$

ABBREVIATIONS USED IN REMARKS
   TC - TEMPERATURE IN CELSIUS
  WCI - WIND CHILL INDEX
   HX - HEAT INDEX
  VSB - VISIBILITY




USA.gov is the U.S. government's official web portal to all federal, state and local government web resources and services.